Hourly Weather Idzhewan

Today, 9 July, Thursday

Time Temperature Precipitation Wind Pressure Humidity
00:00 +22°C° 0.2 mm 1 mps 690 mmHg 74%
01:00 +22°C° 0.1 mm 1 mps 690 mmHg 75%
02:00 +20°C° 0.1 mm 2 mps 690 mmHg 76%
03:00 +21°C° 0 mm 1 mps 690 mmHg 78%
04:00 +22°C° 0.1 mm 1 mps 691 mmHg 77%
05:00 +22°C° 0.1 mm 1 mps 691 mmHg 76%
06:00 +23°C° 0.1 mm 1 mps 691 mmHg 76%
07:00 +25°C° 0.1 mm 1 mps 691 mmHg 69%
08:00 +26°C° 0.1 mm 2 mps 692 mmHg 63%
09:00 +28°C° 0.1 mm 2 mps 692 mmHg 57%
10:00 +29°C° 0.4 mm 2 mps 692 mmHg 55%
11:00 +29°C° 0.4 mm 2 mps 692 mmHg 53%
12:00 +30°C° 0.4 mm 3 mps 692 mmHg 52%
13:00 +31°C° 0.3 mm 2 mps 691 mmHg 50%
14:00 +31°C° 0.3 mm 2 mps 691 mmHg 49%
15:00 +32°C° 0.3 mm 2 mps 691 mmHg 47%
16:00 +31°C° 0.2 mm 2 mps 691 mmHg 51%
17:00 +30°C° 0.2 mm 2 mps 691 mmHg 55%
18:00 +29°C° 0.2 mm 2 mps 691 mmHg 59%
19:00 +27°C° 0.2 mm 2 mps 692 mmHg 64%
20:00 +25°C° 0.2 mm 1 mps 692 mmHg 69%
21:00 +21°C° 0.2 mm 0 mps 692 mmHg 74%
22:00 +23°C° 0.4 mm 1 mps 692 mmHg 77%
23:00 +23°C° 0.4 mm 1 mps 692 mmHg 80%

Tomorrow, 10 July, Friday

Time Temperature Precipitation Wind Pressure Humidity
00:00 +22°C° 0.4 mm 1 mps 692 mmHg 83%
01:00 +22°C° 0.3 mm 1 mps 692 mmHg 85%
02:00 +19°C° 0.3 mm 0 mps 692 mmHg 86%
03:00 +19°C° 0.3 mm 0 mps 692 mmHg 87%
04:00 +19°C° 0 mm 0 mps 692 mmHg 86%
05:00 +20°C° 0 mm 0 mps 692 mmHg 85%
06:00 +22°C° 0 mm 1 mps 692 mmHg 84%
07:00 +23°C° 0 mm 1 mps 693 mmHg 80%
08:00 +25°C° 0 mm 2 mps 693 mmHg 75%
09:00 +26°C° 0 mm 2 mps 693 mmHg 71%
10:00 +26°C° 0.1 mm 2 mps 693 mmHg 71%
11:00 +27°C° 0.1 mm 2 mps 693 mmHg 71%
12:00 +27°C° 0.1 mm 2 mps 692 mmHg 70%
13:00 +27°C° 0.1 mm 2 mps 692 mmHg 69%
14:00 +28°C° 0.1 mm 2 mps 692 mmHg 68%
15:00 +28°C° 0.1 mm 2 mps 691 mmHg 66%
16:00 +28°C° 0.3 mm 2 mps 692 mmHg 68%
17:00 +28°C° 0.3 mm 1 mps 692 mmHg 70%
18:00 +27°C° 0.3 mm 1 mps 692 mmHg 72%
19:00 +26°C° 1.2 mm 1 mps 692 mmHg 76%
20:00 +24°C° 1.2 mm 2 mps 692 mmHg 81%
21:00 +23°C° 1.2 mm 2 mps 693 mmHg 85%
22:00 +22°C° 0.1 mm 1 mps 693 mmHg 87%
23:00 +22°C° 0.1 mm 1 mps 693 mmHg 88%

Day after tomorrow, 11 July, Saturday

Time Temperature Precipitation Wind Pressure Humidity
00:00 +21°C° 0.1 mm 1 mps 693 mmHg 89%
01:00 +21°C° 0.1 mm 1 mps 693 mmHg 92%
02:00 +21°C° 0.1 mm 1 mps 693 mmHg 94%
03:00 +19°C° 0.1 mm 0 mps 693 mmHg 96%
04:00 +19°C° 0.2 mm 0 mps 693 mmHg 96%
05:00 +19°C° 0.2 mm 0 mps 693 mmHg 95%
06:00 +19°C° 0.2 mm 0 mps 693 mmHg 95%
07:00 +22°C° 0.2 mm 1 mps 693 mmHg 95%
08:00 +22°C° 0.2 mm 1 mps 693 mmHg 94%
09:00 +22°C° 0.2 mm 1 mps 693 mmHg 94%
10:00 +23°C° 0.1 mm 1 mps 693 mmHg 91%
11:00 +23°C° 0.1 mm 1 mps 692 mmHg 89%
12:00 +24°C° 0.1 mm 1 mps 692 mmHg 86%
13:00 +25°C° 0.2 mm 2 mps 692 mmHg 82%
14:00 +26°C° 0.2 mm 2 mps 692 mmHg 79%
15:00 +27°C° 0.2 mm 2 mps 691 mmHg 75%
16:00 +26°C° 0.2 mm 2 mps 691 mmHg 76%
17:00 +26°C° 0.2 mm 2 mps 691 mmHg 78%
18:00 +25°C° 0.2 mm 1 mps 691 mmHg 79%
19:00 +24°C° 0.1 mm 1 mps 691 mmHg 81%
20:00 +23°C° 0.1 mm 1 mps 692 mmHg 83%
21:00 +22°C° 0.1 mm 1 mps 692 mmHg 85%
22:00 +22°C° 0 mm 1 mps 692 mmHg 84%
23:00 +21°C° 0 mm 1 mps 692 mmHg 83%

12 July, Sunday

Time Temperature Precipitation Wind Pressure Humidity
00:00 +21°C° 0 mm 1 mps 692 mmHg 82%
01:00 +21°C° 0 mm 1 mps 691 mmHg 83%
02:00 +21°C° 0 mm 1 mps 691 mmHg 83%
03:00 +21°C° 0 mm 1 mps 691 mmHg 84%
04:00 +21°C° 0 mm 1 mps 691 mmHg 83%
05:00 +22°C° 0 mm 1 mps 691 mmHg 83%
06:00 +21°C° 0 mm 0 mps 691 mmHg 83%
07:00 +24°C° 0.1 mm 1 mps 691 mmHg 79%
08:00 +25°C° 0.1 mm 1 mps 691 mmHg 76%
09:00 +26°C° 0.1 mm 2 mps 691 mmHg 73%
10:00 +26°C° 0.3 mm 2 mps 691 mmHg 71%
11:00 +27°C° 0.3 mm 2 mps 691 mmHg 69%
12:00 +28°C° 0.3 mm 2 mps 691 mmHg 67%
13:00 +28°C° 0.4 mm 2 mps 690 mmHg 65%
14:00 +28°C° 0.4 mm 2 mps 690 mmHg 64%
15:00 +29°C° 0.4 mm 2 mps 690 mmHg 62%
16:00 +28°C° 0.3 mm 2 mps 690 mmHg 64%
17:00 +28°C° 0.3 mm 2 mps 690 mmHg 67%
18:00 +27°C° 0.3 mm 2 mps 689 mmHg 70%
19:00 +26°C° 0.1 mm 1 mps 690 mmHg 72%
20:00 +24°C° 0.1 mm 1 mps 690 mmHg 75%
21:00 +23°C° 0.1 mm 1 mps 690 mmHg 77%
22:00 +23°C° 0.1 mm 1 mps 690 mmHg 77%
23:00 +22°C° 0.1 mm 1 mps 690 mmHg 77%

13 July, Monday

Time Temperature Precipitation Wind Pressure Humidity
00:00 +22°C° 0.1 mm 1 mps 689 mmHg 77%
01:00 +22°C° 0 mm 1 mps 689 mmHg 76%
02:00 +22°C° 0 mm 1 mps 689 mmHg 76%
03:00 +22°C° 0 mm 1 mps 689 mmHg 75%
04:00 +22°C° 0 mm 1 mps 689 mmHg 75%
05:00 +23°C° 0 mm 1 mps 689 mmHg 75%
06:00 +23°C° 0 mm 1 mps 689 mmHg 76%
07:00 +25°C° 0.2 mm 1 mps 689 mmHg 71%
08:00 +26°C° 0.2 mm 2 mps 689 mmHg 67%
09:00 +28°C° 0.2 mm 2 mps 689 mmHg 63%
10:00 +28°C° 0.3 mm 2 mps 689 mmHg 61%
11:00 +29°C° 0.3 mm 2 mps 688 mmHg 58%
12:00 +30°C° 0.3 mm 2 mps 688 mmHg 56%
13:00 +30°C° 0.3 mm 2 mps 688 mmHg 55%
14:00 +31°C° 0.3 mm 2 mps 688 mmHg 53%
15:00 +31°C° 0.3 mm 2 mps 688 mmHg 52%
16:00 +31°C° 0.7 mm 2 mps 688 mmHg 56%
17:00 +30°C° 0.7 mm 2 mps 688 mmHg 60%
18:00 +29°C° 0.7 mm 1 mps 688 mmHg 64%
19:00 +27°C° 2.6 mm 2 mps 688 mmHg 72%
20:00 +25°C° 2.6 mm 2 mps 688 mmHg 80%
21:00 +21°C° 2.6 mm 3 mps 689 mmHg 87%
22:00 +21°C° 0.1 mm 2 mps 689 mmHg 86%
23:00 +22°C° 0.1 mm 1 mps 689 mmHg 85%

14 July, Tuesday

Time Temperature Precipitation Wind Pressure Humidity
00:00 +22°C° 0.1 mm 1 mps 689 mmHg 84%
01:00 +21°C° 0 mm 1 mps 689 mmHg 84%
02:00 +21°C° 0 mm 1 mps 689 mmHg 83%
03:00 +20°C° 0 mm 1 mps 689 mmHg 82%
04:00 +21°C° 0 mm 1 mps 689 mmHg 82%
05:00 +22°C° 0 mm 1 mps 689 mmHg 81%
06:00 +22°C° 0 mm 1 mps 690 mmHg 81%
07:00 +24°C° 0 mm 1 mps 690 mmHg 75%
08:00 +26°C° 0 mm 1 mps 690 mmHg 68%
09:00 +28°C° 0 mm 1 mps 690 mmHg 61%
10:00 +29°C° 0.2 mm 1 mps 690 mmHg 59%
11:00 +30°C° 0.2 mm 2 mps 690 mmHg 57%
12:00 +31°C° 0.2 mm 2 mps 690 mmHg 54%
13:00 +31°C° 0.3 mm 2 mps 690 mmHg 53%
14:00 +31°C° 0.3 mm 2 mps 690 mmHg 52%
15:00 +32°C° 0.3 mm 2 mps 690 mmHg 51%
16:00 +31°C° 0.4 mm 2 mps 690 mmHg 55%
17:00 +31°C° 0.4 mm 2 mps 690 mmHg 59%
18:00 +30°C° 0.4 mm 2 mps 690 mmHg 62%
19:00 +28°C° 0.1 mm 2 mps 690 mmHg 67%
20:00 +25°C° 0.1 mm 1 mps 691 mmHg 72%
21:00 +23°C° 0.1 mm 1 mps 691 mmHg 77%
22:00 +23°C° 0 mm 1 mps 691 mmHg 77%
23:00 +23°C° 0 mm 1 mps 691 mmHg 77%
Show more